#timestamp,LO_Frequency,Hit 
1501333215.6,286046985.5,N
1501333235.5,286046984.5,N
1501333255.3,286046985.9,N
1501333275.1,286046986.5,N
1501333295.9,286046986.2,N
1501333315.7,286046985.8,N
1501333335.5,286046987.8,N
1501333355.4,286046987.9,N
1501333375.2,286046988.1,N
1501333395.0,286046988.2,N
1501333395.9,286046988.2,N
1501333415.8,286046985.3,N
1501333435.6,286046987.2,N
1501333455.4,286046985.3,N
1501333475.2,286046986.2,N
1501333495.1,286046985.6,N
1501333496.0,286046985.6,N
1501333515.8,286046986.5,N
1501333535.6,286046984.2,N
1501333555.5,286046986.4,N
1501333575.3,286046984.4,N
1501333595.1,286046986.7,N
1501333615.9,286046983.7,N
1501333635.7,286046984.9,N
1501333655.5,286046983.8,N
1501333675.4,286046983.8,N
1501333695.2,286046985.7,N
1501333715.0,286046987.6,N
1501333715.9,286046987.6,N
1501333735.8,286046986.5,N
1501333755.6,286046985.9,N
1501333775.4,286046988.0,N
1501333795.2,286046985.8,N
1501333815.1,286046986.5,N
1501333816.0,286046986.5,N
1501333835.8,286046986.3,N
1501333855.6,286046986.1,N
1501333875.5,286046983.7,N
1501333895.3,286046984.2,N
1501333915.1,286046984.7,N
1501333935.9,286046986.1,N
1501333955.7,286046983.8,N
1501333975.5,286046985.1,N
1501333995.4,286046985.1,N
1501334015.2,286046982.1,Y
1501334035.0,286047002.7,N
1501334035.9,286047002.7,N
1501334055.8,286046999.8,N
1501334075.6,286047002.5,N
1501334095.4,286047000.1,N
1501334115.3,286047002.8,N
1501334135.1,286047001.4,N
1501334136.0,286047001.4,N
1501334155.8,286047004.1,N
1501334175.6,286047001.7,N
1501334195.5,286047003.9,N
1501334215.3,286047003.8,N
1501334235.1,286047003.4,N
1501334255.9,286047006.0,N
1501334275.7,286047003.5,N
1501334295.5,286047006.0,N
1501334315.4,286047004.6,N
1501334335.2,286047005.2,N
1501334355.0,286047005.9,N
1501334355.9,286047005.9,N
1501334375.8,286047005.3,N
1501334395.6,286047005.6,N
1501334415.4,286047005.4,N
1501334435.2,286047004.6,N
1501334455.1,286047005.2,N
1501334456.0,286047005.2,N
1501334475.8,286047007.2,N
1501334495.6,286047005.1,N
1501334515.5,286047005.3,N
1501334535.3,286047005.2,N
1501334555.1,286047005.0,N
1501334575.9,286047007.6,N
1501334595.7,286047005.7,N
1501334615.5,286047005.3,N
1501334635.4,286047005.1,N
1501334655.2,286047004.6,N
1501334675.0,286047005.7,N
1501334675.9,286047005.7,N
1501334695.7,286047003.0,N
1501334715.6,286047001.4,N
1501334735.4,286047003.9,N
1501334755.2,286047004.1,N
1501334775.1,286047004.4,N
1501334776.0,286047004.4,N
1501334795.8,286047001.7,N
1501334815.6,286047001.8,N
1501334835.5,286046999.7,N
1501334855.3,286046999.9,N
1501334875.1,286047002.5,N
1501334895.9,286047002.6,N
1501334915.7,286047001.8,N
1501334935.5,286047000.2,N
1501334955.3,286047000.3,N
1501334975.2,286047002.3,N
1501334995.0,286047000.7,N
1501334995.9,286047000.7,N
1501335015.7,286047000.5,N
1501335035.6,286046999.7,N
1501335055.4,286047002.6,N
1501335075.2,286046999.7,N
1501335095.1,286047002.8,N
1501335096.0,286047002.8,N
1501335115.8,286047002.1,N
1501335135.6,286047000.2,N
1501335155.5,286046999.9,N
1501335175.3,286047001.1,N
1501335195.1,286047002.4,N
1501335215.9,286047000.0,N
1501335235.7,286046998.1,N
1501335255.5,286046998.9,N
1501335275.3,286046998.4,N
1501335295.2,286046998.6,N
1501335315.0,286046998.3,N
1501335315.9,286046998.3,N
1501335335.7,286046996.6,N
1501335355.6,286046996.6,N
1501335375.4,286046998.9,N
1501335395.2,286046999.5,N
1501335415.1,286046996.6,N
1501335416.0,286046996.6,N
1501335435.8,286046995.3,N
1501335455.6,286046997.1,N
1501335475.5,286046996.6,N
1501335495.3,286046998.2,N
1501335515.1,286046999.7,N
1501335535.9,286046999.8,N
1501335555.7,286047000.5,N
1501335575.5,286046999.9,N
1501335595.3,286046999.8,N
1501335615.2,286047000.3,N
1501335635.0,286047000.4,N
1501335635.9,286047000.4,N
1501335655.7,286047001.2,N
1501335675.6,286046999.1,N
1501335695.4,286047000.7,N
1501335715.2,286047000.5,N
1501335735.1,286046998.3,N
1501335736.0,286046998.3,N
1501335755.8,286046999.2,N
1501335775.6,286046999.4,N
1501335795.5,286046996.9,N
1501335815.3,286046999.5,N
1501335835.1,286047000.6,N
1501335855.8,286046999.6,N
1501335875.7,286046998.2,N
1501335895.5,286047002.8,N
1501335915.3,286047001.2,N
1501335935.2,286047000.9,N
1501335955.9,286047000.6,N
1501335975.7,286046998.5,N
1501335995.6,286046998.2,N
1501336015.4,286046996.6,N
1501336035.2,286046998.6,N
1501336055.1,286046999.0,N
1501336056.0,286046999.0,N
1501336075.8,286046998.9,N
1501336095.6,286046998.4,N
1501336115.4,286047000.4,N
1501336135.3,286047000.8,N
1501336155.1,286047001.0,N
1501336175.8,286046998.1,N
1501336195.7,286046996.6,N
1501336215.5,286046998.2,N
1501336235.3,286046999.1,N
1501336255.2,286046998.7,N
1501336275.9,286047001.0,N
1501336295.7,286047001.0,N
1501336315.6,286046998.1,N
1501336335.4,286046999.1,N
1501336355.2,286046999.6,N
1501336375.0,286046998.3,N
1501336375.9,286046998.3,N
1501336395.8,286046998.4,N
1501336415.6,286046999.1,N
1501336435.4,286046998.6,N
1501336455.3,286046998.3,N
1501336475.1,286046998.4,N
1501336495.8,286047000.7,N
1501336515.7,286047002.8,N
1501336535.5,286046998.2,N
1501336555.3,286046999.0,N
1501336575.2,286046998.9,N
1501336595.9,286046998.5,N
1501336615.7,286046998.0,N
1501336635.5,286046995.6,N
1501336655.4,286046995.0,N
1501336675.2,286046997.6,N
1501336695.0,286046997.3,N
1501336695.9,286046997.3,N
1501336715.8,286046996.9,N
1501336735.6,286046999.1,N
1501336755.4,286046996.7,N
1501336775.3,286046995.3,N
1501336795.1,286046997.9,N
1501336796.0,286046997.9,N
